This is the latest recevied weather packets stored in our database for station/object KD4IZ-13. If no packets are shown the sender has not sent any weather packets the latest 1 day(s).
| Time | Temp. | Humidity | Pressure | Rain* | Wind** | Luminosity | Snow |
|---|---|---|---|---|---|---|---|
| 1778025262 | 24.44° C | 39% | 1011.1 hPa | 0 mm | 2.68 m/s, 195° | 7 W/m² | - |
| 1778024958 | 24.44° C | 40% | 1011 hPa | 0 mm | 2.68 m/s, 223° | 12 W/m² | - |
| 1778024656 | 24.44° C | 40% | 1010.9 hPa | 0 mm | 3.13 m/s, 233° | 17 W/m² | - |
| 1778024352 | 25° C | 40% | 1010.7 hPa | 0 mm | 2.24 m/s, 251° | 23 W/m² | - |
| 1778024050 | 25° C | 39% | 1010.8 hPa | 0 mm | 4.02 m/s, 240° | 28 W/m² | - |
| 1778023747 | 25° C | 40% | 1010.9 hPa | 0 mm | 2.24 m/s, 231° | 31 W/m² | - |
| 1778023445 | 25° C | 40% | 1011 hPa | 0 mm | 2.24 m/s, 195° | 36 W/m² | - |
| 1778023142 | 25° C | 40% | 1010.7 hPa | 0 mm | 1.34 m/s, 214° | 41 W/m² | - |
| 1778022839 | 25° C | 40% | 1010.8 hPa | 0 mm | 1.34 m/s, 169° | 45 W/m² | - |
| 1778022537 | 25° C | 40% | 1010.8 hPa | 0 mm | 1.34 m/s, 273° | 61 W/m² | - |
| 1778022234 | 25° C | 39% | 1010.8 hPa | 0 mm | 4.02 m/s, 200° | 45 W/m² | - |
| 1778021931 | 25° C | 40% | 1010.5 hPa | 0 mm | 4.02 m/s, 189° | 52 W/m² | - |
| 1778021628 | 25° C | 40% | 1010.6 hPa | 0 mm | 3.58 m/s, 206° | 57 W/m² | - |
| 1778021323 | 25° C | 40% | 1010.8 hPa | 0 mm | 4.02 m/s, 225° | 55 W/m² | - |
| 1778021021 | 25° C | 41% | 1010.9 hPa | 0 mm | 1.79 m/s, 230° | 57 W/m² | - |
| 1778020718 | 25.56° C | 40% | 1010.8 hPa | 0 mm | 4.02 m/s, 250° | 63 W/m² | - |
| 1778020415 | 25.56° C | 41% | 1010.9 hPa | 0 mm | 0.89 m/s, 219° | 72 W/m² | - |
| 1778020111 | 25.56° C | 40% | 1011.2 hPa | 0 mm | 2.68 m/s, 254° | 82 W/m² | - |
| 1778019807 | 25.56° C | 39% | 1011.1 hPa | 0 mm | 6.26 m/s, 231° | 92 W/m² | - |
| 1778019504 | 25.56° C | 39% | 1011.1 hPa | 0 mm | 4.47 m/s, 238° | 96 W/m² | - |
| 1778019201 | 26.11° C | 40% | 1010.9 hPa | 0 mm | 3.58 m/s, 240° | 96 W/m² | - |
| 1778018898 | 26.11° C | 39% | 1010.8 hPa | 0 mm | 2.68 m/s, 253° | 102 W/m² | - |
| 1778018595 | 26.67° C | 39% | 1011 hPa | 0 mm | 2.24 m/s, 229° | 145 W/m² | - |
| 1778018293 | 26.67° C | 38% | 1010.8 hPa | 0 mm | 4.92 m/s, 256° | 138 W/m² | - |
| 1778017991 | 27.22° C | 37% | 1010.7 hPa | 0 mm | 4.47 m/s, 220° | 232 W/m² | - |
* Rain latest hour (hover to see other rain measurements)
** Current wind speed in m/s (hover to see current wind gust speed)